Starlink 31227

operational
NORAD ID: 59026 Int'l Des: 2024-038 Owner: SPXS Country: US Constellation: starlink
LEOCIRCULAR

Über Starlink 31227

Beschreibung wird geladen...

Live-Position

3D-Globus wird geladen...

Nächste Überflüge

Höhenverlauf

Altitude vs Time

uPlot chart will show altitude changes over time

Zweizeiliger Elementsatz

1 59026U 24038D 25352.63854537 .00000488 00000-0 27258-4 0 9995
2 59026 43.0015 124.6495 0001646 279.9051 80.1615 15.27576620102362
Epoch: 18. Dez. 2025 • Age: 45 hours

Aktueller Status

Höhe 484.7 km
Geschwindigkeit 7.63 km/s
Subsatellitenpunkt 30.17°N, 11.11°W
Startdatum 25. Feb. 2024
Alter 1.8 years
Typ internet

Technische Details

Klassifizierung Payload
Masse 730.00 kg
Trockenmasse 700.00 kg
Gesamtmasse 730.00 kg
Länge 0.30 m
Durchmesser 4.10 m
Spannweite 29.00 m
Form Box + pan
Hersteller SPXS
Bus-Typ Starlink V2M
Phasenstatus In Orbit
Besitzer/Staat SPXS/US

Große Konstellationen

Loading constellations...